Weather History for Phoenix-Mesa Gateway Airport, AZ

Change the Weather History Date:

Monday, July 15, 2013

  Actual Average Record
Temperature  
Mean Temperature 93 °F -  
Max Temperature 104 °F 101 °F 116 °F (2003)
Min Temperature 82 °F 79 °F 69 °F (1999)
Cooling Degree Days 28    
Growing Degree Days 43 (Base 50)    
Moisture  
Dew Point 63 °F    
Average Humidity 43    
Maximum Humidity 66    
Minimum Humidity 19    
Precipitation  
Precipitation 0.00 in - - ()
Sea Level Pressure  
Sea Level Pressure 29.79 in    
Wind  
Wind Speed 6 mph (WNW)    
Max Wind Speed 24 mph    
Max Gust Speed 31 mph    
Visibility 12 miles    
Events Thunderstorm    
Averages and records for this station are not official NWS values.
T = Trace of Precipitation, MM = Missing Value Source: NWS Daily Summary

Daily Weather History Graph

Daily Weather History Graph

Search for Another Location

Airport:

Trip Planner

Search our weather history database for the weather conditions in past years. The results will help you decide how hot, cold, wet, or windy it might be!

Date:

Astronomy

Jul. 15, 2013 Rise Set
Actual Time 5:28 AM MST 7:36 PM MST
Civil Twilight 5:00 AM MST 8:04 PM MST
Nautical Twilight 4:25 AM MST 8:39 PM MST
Astronomical Twilight 3:48 AM MST 9:15 PM MST
Moon 12:26 PM MST (7/15) 11:52 PM MST (7/15)
Length of Visible Light 15h 04m
Length of Day
14h 08m
Waxing Crescent, 46% of the Moon is Illuminated
Jul 15
Waxing Crescent
Jul 15
First Quarter
Jul 22
Full
Jul 29
Last Quarter
Aug 6
New

Hourly Weather History & Observations

Time (MST) Temp. Heat Index Dew Point Humidity Pressure Visibility Wind Dir Wind Speed Gust Speed Precip Events Conditions
12:15 AM 93.2 °F 91.9 °F 57.2 °F 30% 29.80 in 10.0 mi WNW 10.4 mph - N/A   Clear
12:35 AM 93.2 °F 92.6 °F 59.0 °F 32% 29.80 in 10.0 mi NNW 8.1 mph - N/A   Clear
12:55 AM 93.2 °F 92.6 °F 59.0 °F 32% 29.80 in 10.0 mi North 5.8 mph - N/A   Clear
1:15 AM 93.2 °F 92.6 °F 59.0 °F 32% 29.80 in 10.0 mi NNE 4.6 mph - N/A   Clear
1:35 AM 93.2 °F 93.3 °F 60.8 °F 34% 29.80 in 10.0 mi Calm Calm - N/A   Clear
1:55 AM 89.6 °F 90.1 °F 62.6 °F 40% 29.80 in 10.0 mi SE 3.5 mph - N/A   Clear
2:15 AM 87.8 °F 87.1 °F 59.0 °F 38% 29.80 in 10.0 mi SSE 3.5 mph - N/A   Clear
2:35 AM 86.0 °F 85.4 °F 59.0 °F 40% 29.80 in 10.0 mi Calm Calm - N/A   Clear
2:55 AM 86.0 °F 86.1 °F 60.8 °F 43% 29.80 in 10.0 mi SSW 3.5 mph - N/A   Clear
3:15 AM 87.8 °F 87.6 °F 60.8 °F 40% 29.80 in 10.0 mi SSW 3.5 mph - N/A   Clear
3:35 AM 87.8 °F 87.6 °F 60.8 °F 40% 29.80 in 10.0 mi Calm Calm - N/A   Clear
3:55 AM 87.8 °F 87.6 °F 60.8 °F 40% 29.80 in 10.0 mi West 3.5 mph - N/A   Clear
4:15 AM 87.8 °F 87.1 °F 59.0 °F 38% 29.80 in 10.0 mi Calm Calm - N/A   Clear
4:35 AM 87.8 °F 87.1 °F 59.0 °F 38% 29.80 in 10.0 mi Calm Calm - N/A   Clear
4:47 AM 87.8 °F 87.1 °F 59.0 °F 38% 29.80 in 20.0 mi Variable 4.6 mph - N/A   Scattered Clouds
4:55 AM 86.0 °F 85.4 °F 59.0 °F 40% 29.80 in 10.0 mi Calm Calm - N/A   Clear
5:15 AM 86.0 °F 85.4 °F 59.0 °F 40% 29.80 in 10.0 mi ENE 9.2 mph - N/A   Clear
5:35 AM 86.0 °F 85.4 °F 59.0 °F 40% 29.82 in 10.0 mi East 5.8 mph - N/A   Clear
5:47 AM 86.0 °F 86.1 °F 60.8 °F 43% 29.81 in 30.0 mi East 6.9 mph - N/A   Mostly Cloudy
6:47 AM 84.2 °F 85.0 °F 62.6 °F 48% 29.83 in 30.0 mi ESE 5.8 mph - N/A   Mostly Cloudy
7:47 AM 87.8 °F 88.5 °F 62.6 °F 43% 29.84 in 30.0 mi SE 5.8 mph - N/A   Mostly Cloudy
8:47 AM 93.2 °F 94.1 °F 62.6 °F 36% 29.85 in 30.0 mi East 5.8 mph - N/A   Mostly Cloudy
9:49 AM 95.0 °F 95.2 °F 60.8 °F 32% 29.84 in 30.0 mi SE 4.6 mph - N/A   Mostly Cloudy
10:47 AM 98.6 °F 99.4 °F 60.8 °F 29% 29.83 in 30.0 mi Calm Calm - N/A   Mostly Cloudy
11:47 AM 100.4 °F 100.2 °F 59.0 °F 25% 29.82 in 30.0 mi WSW 5.8 mph - N/A   Mostly Cloudy
12:47 PM 102.2 °F 101.4 °F 57.2 °F 22% 29.80 in 30.0 mi WNW 9.2 mph - N/A   Scattered Clouds
1:50 PM 104.0 °F 102.9 °F 55.4 °F 20% 29.76 in 30.0 mi NW 11.5 mph - N/A   Scattered Clouds
2:50 PM 104.0 °F 102.9 °F 55.4 °F 20% 29.73 in 30.0 mi WNW 4.6 mph - N/A   Mostly Cloudy
3:47 PM 104.0 °F 102.3 °F 53.6 °F 19% 29.70 in 30.0 mi WSW 3.5 mph - N/A   Mostly Cloudy
4:50 PM 104.0 °F 102.9 °F 55.4 °F 20% 29.69 in 10.0 mi WSW 10.4 mph - N/A   Widespread Dust
5:47 PM 98.6 °F 99.4 °F 60.8 °F 29% 29.73 in 5.0 mi WSW 11.5 mph 28.8 mph N/A   Widespread Dust
6:50 PM 82.4 °F 86.3 °F 69.8 °F 66% 29.73 in 20.0 mi NNE 15.0 mph - N/A   Mostly Cloudy
7:50 PM 86.0 °F 91.8 °F 71.6 °F 62% 29.73 in 20.0 mi NNE 9.2 mph - N/A   Mostly Cloudy
7:55 PM 86.0 °F 91.8 °F 71.6 °F 62% 29.73 in 10.0 mi NNE 9.2 mph - N/A   Clear
8:15 PM 86.0 °F 91.8 °F 71.6 °F 62% 29.73 in 10.0 mi NE 5.8 mph - N/A   Clear
8:35 PM 86.0 °F 91.8 °F 71.6 °F 62% 29.74 in 10.0 mi Calm Calm - N/A   Clear
8:47 PM 86.0 °F 93.4 °F 73.4 °F 66% 29.74 in 20.0 mi SSW 5.8 mph - N/A   Mostly Cloudy
8:55 PM 86.0 °F 91.8 °F 71.6 °F 62% 29.75 in 10.0 mi SW 5.8 mph - N/A   Clear
9:15 PM 86.0 °F 90.4 °F 69.8 °F 58% 29.77 in 10.0 mi WSW 5.8 mph - N/A   Clear
9:35 PM 87.8 °F 92.6 °F 69.8 °F 55% 29.78 in 10.0 mi WSW 5.8 mph - N/A Thunderstorm Thunderstorm
9:47 PM 87.8 °F 92.6 °F 69.8 °F 55% 29.78 in 20.0 mi WSW 6.9 mph - N/A   Mostly Cloudy
9:55 PM 87.8 °F 91.4 °F 68.0 °F 52% 29.78 in 10.0 mi West 5.8 mph - N/A   Clear
10:15 PM 86.0 °F 88.2 °F 66.2 °F 51% 29.79 in 10.0 mi West 4.6 mph - N/A   Clear
10:35 PM 87.8 °F 90.4 °F 66.2 °F 49% 29.79 in 10.0 mi NNW 6.9 mph - N/A   Clear
10:47 PM 87.8 °F 90.4 °F 66.2 °F 49% 29.79 in 20.0 mi NNW 4.6 mph - N/A   Mostly Cloudy
10:55 PM 86.0 °F 89.4 °F 68.0 °F 55% 29.79 in 10.0 mi NW 4.6 mph - N/A   Clear
11:15 PM 86.0 °F 89.4 °F 68.0 °F 55% 29.80 in 10.0 mi ENE 4.6 mph - N/A   Clear
11:35 PM 86.0 °F 89.4 °F 68.0 °F 55% 29.83 in 10.0 mi East 11.5 mph - N/A Thunderstorm Clear
11:47 PM 87.8 °F 89.4 °F 64.4 °F 46% 29.83 in 20.0 mi East 15.0 mph 27.6 mph N/A   Mostly Cloudy
11:55 PM 86.0 °F 87.3 °F 64.4 °F 48% 29.83 in 10.0 mi East 24.2 mph 31.1 mph N/A   Clear